Time,TemperatureF,DewpointF,PressureIn,WindDirection,WindDirectionDegrees,WindSpeedMPH,WindSpeedGustMPH,Humidity,HourlyPrecipIn,Conditions,Clouds,dailyrainin,SoftwareType,DateUTC
2013-07-26 00:00:00,75.2,70.7,29.99,NE,53,0.0,1.0,86,0.00,CLR,SKC,0.00,WeatherDisplay:10.37,2013-07-25 22:00:00,
2013-07-26 00:10:00,75.2,71.1,29.99,NE,53,0.0,0.0,87,0.00,CLR,SKC,0.00,WeatherDisplay:10.37,2013-07-25 22:10:00,
2013-07-26 00:20:00,75.1,71.0,29.99,NE,53,0.0,0.0,87,0.00,CLR,SKC,0.00,WeatherDisplay:10.37,2013-07-25 22:20:00,
2013-07-26 00:30:00,75.2,71.1,29.99,NE,53,0.0,0.0,87,0.00,CLR,SKC,0.00,WeatherDisplay:10.37,2013-07-25 22:30:00,
2013-07-26 00:40:00,75.4,71.3,29.98,NE,53,0.0,2.0,87,0.00,CLR,SKC,0.00,WeatherDisplay:10.37,2013-07-25 22:40:00,
2013-07-26 00:50:00,75.1,70.6,29.98,NE,53,0.0,1.0,86,0.00,CLR,SKC,0.00,WeatherDisplay:10.37,2013-07-25 22:50:00,
2013-07-26 01:00:00,74.8,70.7,29.98,NE,53,0.0,0.0,87,0.00,CLR,SKC,0.00,WeatherDisplay:10.37,2013-07-25 23:00:00,
2013-07-26 01:10:00,74.5,70.4,29.98,NE,53,0.0,0.0,87,0.00,CLR,SKC,0.00,WeatherDisplay:10.37,2013-07-25 23:10:00,
2013-07-26 01:20:00,74.4,70.3,29.98,NE,53,0.0,0.0,87,0.00,CLR,SKC,0.00,WeatherDisplay:10.37,2013-07-25 23:20:00,
2013-07-26 01:30:00,74.3,70.2,29.98,NE,53,0.0,0.0,87,0.00,CLR,SKC,0.00,WeatherDisplay:10.37,2013-07-25 23:30:00,
2013-07-26 01:40:00,74.4,70.3,29.98,NE,53,0.0,2.0,87,0.00,CLR,SKC,0.00,WeatherDisplay:10.37,2013-07-25 23:40:00,
2013-07-26 01:50:00,74.3,69.8,29.98,NE,53,0.0,0.0,86,0.00,CLR,SKC,0.00,WeatherDisplay:10.37,2013-07-25 23:50:00,
2013-07-26 02:00:00,74.2,70.1,29.98,NE,53,0.0,0.0,87,0.00,CLR,SKC,0.00,WeatherDisplay:10.37,2013-07-26 00:00:00,
2013-07-26 02:10:00,74.1,70.0,29.97,NE,53,0.0,0.0,87,0.00,CLR,SKC,0.00,WeatherDisplay:10.37,2013-07-26 00:10:00,
2013-07-26 02:20:00,73.9,69.8,29.97,NE,53,0.0,1.0,87,0.00,CLR,SKC,0.00,WeatherDisplay:10.37,2013-07-26 00:20:00,
2013-07-26 02:30:00,73.9,69.4,29.97,NE,53,0.0,1.0,86,0.00,CLR,SKC,0.00,WeatherDisplay:10.37,2013-07-26 00:30:00,
2013-07-26 02:40:00,73.8,69.6,29.97,NE,53,0.0,1.0,87,0.00,CLR,SKC,0.00,WeatherDisplay:10.37,2013-07-26 00:40:00,
2013-07-26 02:50:00,73.6,69.5,29.97,NE,53,0.0,2.0,87,0.00,CLR,SKC,0.00,WeatherDisplay:10.37,2013-07-26 00:50:00,
2013-07-26 03:00:00,73.6,69.5,29.96,NE,53,0.0,1.0,87,0.00,CLR,SKC,0.00,WeatherDisplay:10.37,2013-07-26 01:00:00,
2013-07-26 03:10:00,73.4,69.3,29.97,NE,53,0.0,3.0,87,0.00,CLR,SKC,0.00,WeatherDisplay:10.37,2013-07-26 01:10:00,
2013-07-26 03:20:00,73.2,69.1,29.97,ESE,119,0.0,4.0,87,0.00,CLR,SKC,0.00,WeatherDisplay:10.37,2013-07-26 01:20:00,
2013-07-26 03:30:00,73.1,69.0,29.97,SE,137,0.0,2.0,87,0.00,CLR,SKC,0.00,WeatherDisplay:10.37,2013-07-26 01:30:00,
2013-07-26 03:40:00,73.0,68.9,29.97,SE,137,0.0,2.0,87,0.00,CLR,SKC,0.00,WeatherDisplay:10.37,2013-07-26 01:40:00,
2013-07-26 03:50:00,72.8,69.0,29.97,SE,137,0.0,2.0,88,0.00,CLR,SKC,0.00,WeatherDisplay:10.37,2013-07-26 01:50:00,
2013-07-26 04:00:00,72.7,68.9,29.97,SE,137,0.0,3.0,88,0.00,CLR,SKC,0.00,WeatherDisplay:10.37,2013-07-26 02:00:00,
2013-07-26 04:10:00,72.5,68.7,29.97,SE,137,0.0,3.0,88,0.00,CLR,SKC,0.00,WeatherDisplay:10.37,2013-07-26 02:10:00,
2013-07-26 04:20:00,72.5,68.7,29.97,SE,137,1.0,3.0,88,0.00,CLR,SKC,0.00,WeatherDisplay:10.37,2013-07-26 02:20:00,
2013-07-26 04:30:00,72.5,68.7,29.97,SE,137,0.0,2.0,88,0.00,CLR,SKC,0.00,WeatherDisplay:10.37,2013-07-26 02:30:00,
2013-07-26 04:40:00,72.5,68.8,29.97,SE,137,1.0,2.0,88,0.00,CLR,SKC,0.00,WeatherDisplay:10.37,2013-07-26 02:40:00,
2013-07-26 04:50:00,72.5,68.7,29.97,SE,137,1.0,3.0,88,0.00,CLR,SKC,0.00,WeatherDisplay:10.37,2013-07-26 02:50:00,
2013-07-26 05:00:00,72.4,68.7,29.97,SE,137,0.0,2.0,88,0.00,CLR,SKC,0.00,WeatherDisplay:10.37,2013-07-26 03:00:00,
2013-07-26 05:10:00,72.5,69.1,29.97,SE,137,0.0,2.0,89,0.00,CLR,SKC,0.00,WeatherDisplay:10.37,2013-07-26 03:10:00,
2013-07-26 05:20:00,72.6,69.2,29.97,SE,137,0.0,1.0,89,0.00,CLR,SKC,0.00,WeatherDisplay:10.37,2013-07-26 03:20:00,
2013-07-26 05:30:00,72.6,69.2,29.97,SE,137,0.0,0.0,89,0.00,CLR,SKC,0.00,WeatherDisplay:10.37,2013-07-26 03:30:00,
2013-07-26 05:40:00,72.7,69.6,29.97,SE,137,0.0,0.0,90,0.00,CLR,SKC,0.00,WeatherDisplay:10.37,2013-07-26 03:40:00,
2013-07-26 05:50:00,72.8,69.7,29.97,SE,137,0.0,2.0,90,0.00,CLR,SKC,0.00,WeatherDisplay:10.37,2013-07-26 03:50:00,
2013-07-26 06:00:00,72.8,69.7,29.97,SE,137,0.0,2.0,90,0.00,CLR,SKC,0.00,WeatherDisplay:10.37,2013-07-26 04:00:00,
2013-07-26 06:10:00,72.7,69.6,29.97,SE,137,0.0,0.0,90,0.00,CLR,SKC,0.00,WeatherDisplay:10.37,2013-07-26 04:10:00,
2013-07-26 06:20:00,72.6,69.5,29.98,SE,137,0.0,2.0,90,0.00,CLR,SKC,0.00,WeatherDisplay:10.37,2013-07-26 04:20:00,
2013-07-26 06:30:00,72.6,69.5,29.98,SE,137,0.0,2.0,90,0.00,CLR,SKC,0.00,WeatherDisplay:10.37,2013-07-26 04:30:00,
2013-07-26 06:40:00,72.6,69.5,29.98,SE,137,0.0,2.0,90,0.00,CLR,SKC,0.00,WeatherDisplay:10.37,2013-07-26 04:40:00,
2013-07-26 06:50:00,72.7,69.6,29.98,SE,137,0.0,0.0,90,0.00,CLR,SKC,0.00,WeatherDisplay:10.37,2013-07-26 04:50:00,
2013-07-26 07:00:00,72.7,69.6,29.98,SE,137,0.0,0.0,90,0.00,CLR,SKC,0.00,WeatherDisplay:10.37,2013-07-26 05:00:00,
2013-07-26 07:10:00,72.7,69.6,29.98,SE,137,0.0,0.0,90,0.00,CLR,SKC,0.00,WeatherDisplay:10.37,2013-07-26 05:10:00,
2013-07-26 07:20:00,73.0,69.9,29.98,SE,137,0.0,0.0,90,0.00,CLR,SKC,0.00,WeatherDisplay:10.37,2013-07-26 05:20:00,
2013-07-26 07:30:00,73.2,70.1,29.98,SE,137,0.0,0.0,90,0.00,CLR,SKC,0.00,WeatherDisplay:10.37,2013-07-26 05:30:00,
2013-07-26 07:40:00,73.4,70.3,29.98,SE,137,0.0,1.0,90,0.00,CLR,SKC,0.00,WeatherDisplay:10.37,2013-07-26 05:40:00,
2013-07-26 07:50:00,73.8,70.7,29.98,SE,137,0.0,0.0,90,0.00,CLR,SKC,0.00,WeatherDisplay:10.37,2013-07-26 05:50:00,
2013-07-26 08:00:00,74.2,71.1,29.98,SE,137,0.0,0.0,90,0.00,CLR,SKC,0.00,WeatherDisplay:10.37,2013-07-26 06:00:00,
2013-07-26 08:10:00,75.1,72.2,29.99,SE,137,0.0,0.0,91,0.00,CLR,SKC,0.00,WeatherDisplay:10.37,2013-07-26 06:10:00,
2013-07-26 08:20:00,75.9,72.4,29.99,SE,137,0.0,0.0,89,0.00,CLR,SKC,0.00,WeatherDisplay:10.37,2013-07-26 06:20:00,
2013-07-26 08:30:00,76.9,72.8,29.99,SE,137,0.0,0.0,87,0.00,CLR,SKC,0.00,WeatherDisplay:10.37,2013-07-26 06:30:00,
2013-07-26 08:40:00,77.7,72.5,29.99,SE,137,0.0,0.0,84,0.00,CLR,SKC,0.00,WeatherDisplay:10.37,2013-07-26 06:40:00,
2013-07-26 08:50:00,77.9,72.3,29.99,SE,135,0.0,4.0,83,0.00,CLR,SKC,0.00,WeatherDisplay:10.37,2013-07-26 06:50:00,
2013-07-26 09:00:00,77.8,72.2,29.99,SE,139,1.0,4.0,83,0.00,CLR,SKC,0.00,WeatherDisplay:10.37,2013-07-26 07:00:00,
2013-07-26 09:10:00,77.5,71.9,29.99,North,5,1.0,3.0,83,0.00,CLR,SKC,0.00,WeatherDisplay:10.37,2013-07-26 07:10:00,
2013-07-26 09:20:00,77.9,72.3,29.98,North,359,0.0,3.0,83,0.00,CLR,SKC,0.00,WeatherDisplay:10.37,2013-07-26 07:20:00,
2013-07-26 09:30:00,78.7,72.0,29.98,NNW,332,2.0,5.0,80,0.00,CLR,SKC,0.00,WeatherDisplay:10.37,2013-07-26 07:30:00,
2013-07-26 09:40:00,78.4,71.3,29.98,WNW,303,3.0,6.0,79,0.00,CLR,SKC,0.00,WeatherDisplay:10.37,2013-07-26 07:40:00,
2013-07-26 09:50:00,78.7,70.9,29.98,NNW,329,2.0,5.0,77,0.00,CLR,SKC,0.00,WeatherDisplay:10.37,2013-07-26 07:50:00,
2013-07-26 10:00:00,79.0,71.2,29.99,NW,317,2.0,5.0,77,0.00,CLR,SKC,0.00,WeatherDisplay:10.37,2013-07-26 08:00:00,
2013-07-26 10:10:00,79.5,71.3,29.99,NW,326,2.0,6.0,76,0.00,CLR,SKC,0.00,WeatherDisplay:10.37,2013-07-26 08:10:00,
2013-07-26 10:20:00,79.9,72.5,29.99,NW,314,2.0,6.0,78,0.00,CLR,SKC,0.00,WeatherDisplay:10.37,2013-07-26 08:20:00,
2013-07-26 10:30:00,79.9,72.4,29.99,NW,319,1.0,7.0,78,0.00,CLR,SKC,0.00,WeatherDisplay:10.37,2013-07-26 08:30:00,
2013-07-26 10:40:00,79.7,72.2,29.99,WNW,293,3.0,6.0,78,0.00,CLR,SKC,0.00,WeatherDisplay:10.37,2013-07-26 08:40:00,
2013-07-26 10:50:00,79.7,72.2,29.99,WNW,292,1.0,7.0,78,0.00,CLR,SKC,0.00,WeatherDisplay:10.37,2013-07-26 08:50:00,
2013-07-26 11:00:00,80.0,72.1,29.99,WNW,302,3.0,8.0,77,0.00,CLR,SKC,0.00,WeatherDisplay:10.37,2013-07-26 09:00:00,
2013-07-26 11:10:00,80.3,72.4,29.99,WNW,302,3.0,6.0,77,0.00,CLR,SKC,0.00,WeatherDisplay:10.37,2013-07-26 09:10:00,
2013-07-26 11:20:00,80.6,72.7,29.99,WNW,284,3.0,8.0,77,0.00,CLR,SKC,0.00,WeatherDisplay:10.37,2013-07-26 09:20:00,
2013-07-26 11:30:00,80.2,72.3,29.99,WNW,295,5.0,8.0,77,0.00,CLR,SKC,0.00,WeatherDisplay:10.37,2013-07-26 09:30:00,
2013-07-26 11:40:00,80.3,72.8,29.99,WNW,297,2.0,7.0,78,0.00,CLR,SKC,0.00,WeatherDisplay:10.37,2013-07-26 09:40:00,
2013-07-26 11:50:00,80.5,71.4,29.99,WNW,282,5.0,8.0,74,0.00,CLR,SKC,0.00,WeatherDisplay:10.37,2013-07-26 09:50:00,
2013-07-26 12:00:00,80.9,73.0,29.98,NW,305,5.0,7.0,77,0.00,CLR,SKC,0.00,WeatherDisplay:10.37,2013-07-26 10:00:00,
2013-07-26 12:10:00,80.7,73.6,29.98,WNW,285,3.0,8.0,79,0.00,CLR,SKC,0.00,WeatherDisplay:10.37,2013-07-26 10:10:00,
2013-07-26 12:20:00,80.8,72.5,29.98,NW,315,1.0,7.0,76,0.00,CLR,SKC,0.00,WeatherDisplay:10.37,2013-07-26 10:20:00,
2013-07-26 12:30:00,81.5,73.2,29.97,NW,306,5.0,6.0,76,0.00,CLR,SKC,0.00,WeatherDisplay:10.37,2013-07-26 10:30:00,
2013-07-26 12:40:00,81.8,72.7,29.97,NNW,327,5.0,8.0,74,0.00,CLR,SKC,0.00,WeatherDisplay:10.37,2013-07-26 10:40:00,
2013-07-26 12:50:00,81.3,72.6,29.97,NW,326,6.0,9.0,75,0.00,CLR,SKC,0.00,WeatherDisplay:10.37,2013-07-26 10:50:00,
2013-07-26 13:00:00,81.0,72.7,29.97,NNW,331,2.0,8.0,76,0.00,CLR,SKC,0.00,WeatherDisplay:10.37,2013-07-26 11:00:00,
2013-07-26 13:10:00,81.9,72.8,29.97,NW,304,3.0,6.0,74,0.00,CLR,SKC,0.00,WeatherDisplay:10.37,2013-07-26 11:10:00,
2013-07-26 13:20:00,82.0,72.5,29.97,WNW,300,6.0,9.0,73,0.00,CLR,SKC,0.00,WeatherDisplay:10.37,2013-07-26 11:20:00,
2013-07-26 13:30:00,81.7,72.6,29.97,NW,311,5.0,8.0,74,0.00,CLR,SKC,0.00,WeatherDisplay:10.37,2013-07-26 11:30:00,
2013-07-26 13:40:00,81.7,72.6,29.97,NW,309,3.0,9.0,74,0.00,CLR,SKC,0.00,WeatherDisplay:10.37,2013-07-26 11:40:00,
2013-07-26 13:50:00,82.5,73.4,29.97,WNW,285,5.0,8.0,74,0.00,CLR,SKC,0.00,WeatherDisplay:10.37,2013-07-26 11:50:00,
2013-07-26 14:00:00,81.8,73.5,29.97,NW,312,3.0,9.0,76,0.00,CLR,SKC,0.00,WeatherDisplay:10.37,2013-07-26 12:00:00,
2013-07-26 14:10:00,81.7,73.8,29.97,WNW,299,6.0,9.0,77,0.00,CLR,SKC,0.00,WeatherDisplay:10.37,2013-07-26 12:10:00,
2013-07-26 14:20:00,81.2,74.1,29.97,NW,312,6.0,12.0,79,0.00,CLR,SKC,0.00,WeatherDisplay:10.37,2013-07-26 12:20:00,
2013-07-26 14:30:00,80.8,74.4,29.97,NW,316,5.0,12.0,81,0.00,CLR,SKC,0.00,WeatherDisplay:10.37,2013-07-26 12:30:00,
2013-07-26 14:40:00,81.6,74.5,29.97,NW,310,6.0,12.0,79,0.00,CLR,SKC,0.00,WeatherDisplay:10.37,2013-07-26 12:40:00,
2013-07-26 14:50:00,80.5,74.5,29.97,NNW,338,5.0,10.0,82,0.00,CLR,SKC,0.00,WeatherDisplay:10.37,2013-07-26 12:50:00,
2013-07-26 15:00:00,80.7,74.0,29.97,NW,322,6.0,9.0,80,0.00,CLR,SKC,0.00,WeatherDisplay:10.37,2013-07-26 13:00:00,
2013-07-26 15:10:00,80.8,74.4,29.97,WNW,301,6.0,9.0,81,0.00,CLR,SKC,0.00,WeatherDisplay:10.37,2013-07-26 13:10:00,
2013-07-26 15:20:00,80.7,74.3,29.96,WNW,303,6.0,9.0,81,0.00,CLR,SKC,0.00,WeatherDisplay:10.37,2013-07-26 13:20:00,
2013-07-26 15:30:00,80.7,74.7,29.96,NW,313,3.0,9.0,82,0.00,CLR,SKC,0.00,WeatherDisplay:10.37,2013-07-26 13:30:00,
2013-07-26 15:40:00,81.5,74.4,29.96,WNW,303,3.0,9.0,79,0.00,CLR,SKC,0.00,WeatherDisplay:10.37,2013-07-26 13:40:00,
2013-07-26 15:50:00,81.9,74.0,29.95,NW,315,5.0,9.0,77,0.00,CLR,SKC,0.00,WeatherDisplay:10.37,2013-07-26 13:50:00,
2013-07-26 16:00:00,82.7,74.0,29.95,NW,305,6.0,8.0,75,0.00,CLR,SKC,0.00,WeatherDisplay:10.37,2013-07-26 14:00:00,
2013-07-26 16:10:00,82.3,73.6,29.95,WNW,284,7.0,12.0,75,0.00,CLR,SKC,0.00,WeatherDisplay:10.37,2013-07-26 14:10:00,
2013-07-26 16:20:00,81.7,73.8,29.95,WNW,284,7.0,12.0,77,0.00,CLR,SKC,0.00,WeatherDisplay:10.37,2013-07-26 14:20:00,
2013-07-26 16:30:00,81.5,73.6,29.95,West,281,5.0,9.0,77,0.00,CLR,SKC,0.00,WeatherDisplay:10.37,2013-07-26 14:30:00,
2013-07-26 16:40:00,81.0,73.5,29.95,NNW,328,6.0,12.0,78,0.00,CLR,SKC,0.00,WeatherDisplay:10.37,2013-07-26 14:40:00,
2013-07-26 16:50:00,81.6,74.5,29.95,NW,306,5.0,9.0,79,0.00,CLR,SKC,0.00,WeatherDisplay:10.37,2013-07-26 14:50:00,
2013-07-26 17:00:00,81.6,74.8,29.94,NW,304,6.0,10.0,80,0.00,CLR,SKC,0.00,WeatherDisplay:10.37,2013-07-26 15:00:00,
2013-07-26 17:10:00,82.0,74.8,29.95,NW,312,5.0,10.0,79,0.00,CLR,SKC,0.00,WeatherDisplay:10.37,2013-07-26 15:10:00,
2013-07-26 17:20:00,81.9,74.7,29.94,West,281,5.0,10.0,79,0.00,CLR,SKC,0.00,WeatherDisplay:10.37,2013-07-26 15:20:00,
2013-07-26 17:30:00,81.0,74.3,29.94,NW,313,6.0,11.0,80,0.00,CLR,SKC,0.00,WeatherDisplay:10.37,2013-07-26 15:30:00,
2013-07-26 17:40:00,80.9,74.6,29.94,NNW,338,3.0,8.0,81,0.00,CLR,SKC,0.00,WeatherDisplay:10.37,2013-07-26 15:40:00,
2013-07-26 17:50:00,80.5,73.8,29.94,NNW,335,6.0,10.0,80,0.00,CLR,SKC,0.00,WeatherDisplay:10.37,2013-07-26 15:50:00,
2013-07-26 18:00:00,81.1,74.7,29.94,NW,325,2.0,10.0,81,0.00,CLR,SKC,0.00,WeatherDisplay:10.37,2013-07-26 16:00:00,
2013-07-26 18:10:00,80.8,74.4,29.94,NNW,329,6.0,9.0,81,0.00,CLR,SKC,0.00,WeatherDisplay:10.37,2013-07-26 16:10:00,
2013-07-26 18:20:00,81.0,74.6,29.94,NW,319,6.0,9.0,81,0.00,CLR,SKC,0.00,WeatherDisplay:10.37,2013-07-26 16:20:00,
2013-07-26 18:30:00,80.5,74.5,29.93,NW,309,5.0,9.0,82,0.00,CLR,SKC,0.00,WeatherDisplay:10.37,2013-07-26 16:30:00,
2013-07-26 18:40:00,80.5,74.5,29.93,WNW,283,2.0,7.0,82,0.00,CLR,SKC,0.00,WeatherDisplay:10.37,2013-07-26 16:40:00,
2013-07-26 18:50:00,80.5,74.9,29.93,WNW,293,3.0,7.0,83,0.00,CLR,SKC,0.00,WeatherDisplay:10.37,2013-07-26 16:50:00,
2013-07-26 19:00:00,80.4,74.4,29.93,WNW,289,5.0,7.0,82,0.00,CLR,SKC,0.00,WeatherDisplay:10.37,2013-07-26 17:00:00,
2013-07-26 19:10:00,80.1,74.1,29.93,NW,310,2.0,8.0,82,0.00,CLR,SKC,0.00,WeatherDisplay:10.37,2013-07-26 17:10:00,
2013-07-26 19:20:00,80.3,74.3,29.93,WNW,285,2.0,6.0,82,0.00,CLR,SKC,0.00,WeatherDisplay:10.37,2013-07-26 17:20:00,
2013-07-26 19:30:00,80.2,74.2,29.92,WNW,292,2.0,5.0,82,0.00,CLR,SKC,0.00,WeatherDisplay:10.37,2013-07-26 17:30:00,
2013-07-26 19:40:00,80.0,74.4,29.92,WNW,289,2.0,6.0,83,0.00,CLR,SKC,0.00,WeatherDisplay:10.37,2013-07-26 17:40:00,
2013-07-26 19:50:00,79.8,74.2,29.92,WNW,287,2.0,6.0,83,0.00,CLR,SKC,0.00,WeatherDisplay:10.37,2013-07-26 17:50:00,
2013-07-26 20:00:00,79.6,74.0,29.93,WNW,284,1.0,4.0,83,0.00,CLR,SKC,0.00,WeatherDisplay:10.37,2013-07-26 18:00:00,
2013-07-26 20:10:00,79.5,73.9,29.93,WNW,285,2.0,4.0,83,0.00,CLR,SKC,0.00,WeatherDisplay:10.37,2013-07-26 18:10:00,
2013-07-26 20:20:00,79.3,74.0,29.93,WNW,286,1.0,3.0,84,0.00,CLR,SKC,0.00,WeatherDisplay:10.37,2013-07-26 18:20:00,
2013-07-26 20:30:00,79.0,73.4,29.92,WNW,286,0.0,2.0,83,0.00,CLR,SKC,0.00,WeatherDisplay:10.37,2013-07-26 18:30:00,
2013-07-26 20:40:00,78.9,73.6,29.92,WNW,286,0.0,1.0,84,0.00,CLR,SKC,0.00,WeatherDisplay:10.37,2013-07-26 18:40:00,
2013-07-26 20:50:00,78.7,73.5,29.92,WNW,286,0.0,2.0,84,0.00,CLR,SKC,0.00,WeatherDisplay:10.37,2013-07-26 18:50:00,
2013-07-26 21:00:00,78.8,73.9,29.92,WNW,286,0.0,0.0,85,0.00,CLR,SKC,0.00,WeatherDisplay:10.37,2013-07-26 19:00:00,
2013-07-26 21:10:00,78.6,73.3,29.92,WSW,248,1.0,3.0,84,0.00,CLR,SKC,0.00,WeatherDisplay:10.37,2013-07-26 19:10:00,
2013-07-26 21:20:00,78.3,73.1,29.92,SSE,168,1.0,3.0,84,0.00,CLR,SKC,0.00,WeatherDisplay:10.37,2013-07-26 19:20:00,
2013-07-26 21:30:00,78.1,72.5,29.92,SSE,168,0.0,0.0,83,0.00,CLR,SKC,0.00,WeatherDisplay:10.37,2013-07-26 19:30:00,
2013-07-26 21:40:00,77.7,71.8,29.92,SSE,168,0.0,3.0,82,0.00,CLR,SKC,0.00,WeatherDisplay:10.37,2013-07-26 19:40:00,
2013-07-26 21:50:00,77.6,71.7,29.93,SSE,168,0.0,1.0,82,0.00,CLR,SKC,0.00,WeatherDisplay:10.37,2013-07-26 19:50:00,
2013-07-26 22:00:00,77.5,71.6,29.93,SSE,168,0.0,0.0,82,0.00,CLR,SKC,0.00,WeatherDisplay:10.37,2013-07-26 20:00:00,
2013-07-26 22:10:00,77.5,71.9,29.93,SSE,168,0.0,0.0,83,0.00,CLR,SKC,0.00,WeatherDisplay:10.37,2013-07-26 20:10:00,
2013-07-26 22:20:00,77.6,72.0,29.93,SSE,168,0.0,0.0,83,0.00,CLR,SKC,0.00,WeatherDisplay:10.37,2013-07-26 20:20:00,
2013-07-26 22:30:00,77.5,71.6,29.93,SSE,168,0.0,0.0,82,0.00,CLR,SKC,0.00,WeatherDisplay:10.37,2013-07-26 20:30:00,
2013-07-26 22:40:00,77.4,71.8,29.93,SSE,168,0.0,1.0,83,0.00,CLR,SKC,0.00,WeatherDisplay:10.37,2013-07-26 20:40:00,
2013-07-26 22:50:00,77.3,71.7,29.92,SSE,168,0.0,0.0,83,0.00,CLR,SKC,0.00,WeatherDisplay:10.37,2013-07-26 20:50:00,
2013-07-26 23:00:00,77.2,71.6,29.92,SSE,168,0.0,0.0,83,0.00,CLR,SKC,0.00,WeatherDisplay:10.37,2013-07-26 21:00:00,
2013-07-26 23:10:00,77.0,71.4,29.92,SSE,168,0.0,3.0,83,0.00,CLR,SKC,0.00,WeatherDisplay:10.37,2013-07-26 21:10:00,
2013-07-26 23:20:00,76.9,71.7,29.92,SSE,168,0.0,0.0,84,0.00,CLR,SKC,0.00,WeatherDisplay:10.37,2013-07-26 21:20:00,
2013-07-26 23:30:00,76.9,71.7,29.92,SSE,168,0.0,0.0,84,0.00,CLR,SKC,0.00,WeatherDisplay:10.37,2013-07-26 21:30:00,
2013-07-26 23:40:00,76.8,71.6,29.92,SSE,168,1.0,3.0,84,0.00,CLR,SKC,0.00,WeatherDisplay:10.37,2013-07-26 21:40:00,
2013-07-26 23:50:00,76.5,71.3,29.92,SSE,168,0.0,2.0,84,0.00,CLR,SKC,0.00,WeatherDisplay:10.37,2013-07-26 21:50:00,